Regional Weather Roundup
Issued by NWS Charleston, SC

Current Version | Previous Version | Text Only | Print | Product List | Glossary Off
Versions: 1 2 3 4 5 6 7 8 9 10 11 12 13 14 15 16 17 18 19 20 21 22 23 24 25 26 27 28 29 30 31 32 33 34 35 36 37 38 39 40 41 42 43 44 45 46 47 48 49 50

674
ASUS42 KCHS 181412
RWRCHS

REGIONAL WEATHER ROUNDUP
NATIONAL WEATHER SERVICE CHARLESTON SC
900 AM EST WED JAN 18 2017

NOTE: "FAIR" INDICATES FEW OR NO CLOUDS BELOW 12,000 FEET WITH NO
SIGNIFICANT WEATHER AND/OR OBSTRUCTIONS TO VISIBILITY.

NOT ALL STATIONS ARE QUALITY CONTROLLED. USE DATA WITH CAUTION...
ESPECIALLY DEWPOINT OBSERVATIONS.

SCZ027-030-031-034>040-042>050-181500-
...SOUTHEAST SOUTH CAROLINA...

CITY           SKY/WX    TMP DP  RH WIND       PRES   REMARKS
N CHARLESTON   PTSUNNY   64  59  83 SW10      30.10R
WATERFRONT PRK   N/A     63  60  90 W6        30.09S
MOUNT PLEASANT FAIR      64  61  88 SW8       30.10R
JOHNS ISLAND   FAIR      64  61  88 SW8G14    30.11R
PINOPOLIS        N/A     61  59  94 SW9       29.99R
MONCKS CORNER  FAIR      63  59  88 SW8       30.08S
SUMMERVILLE    FAIR     N/A N/A N/A SW3       30.10S
BEAUFORT MCAS  MOSUNNY   64  60  87 SW10      30.12R
BEAUFORT ARPT  FAIR      63  59  88 SW8       30.12R
HILTON HEAD IS SUNNY     68  63  83 SW9       30.13R
WALTERBORO     SUNNY     64 N/A N/A W7        30.12R
ALLENDALE      CLOUDY    63  61  94 VRB3G12   30.12R

...SOUTHERN MIDLANDS AND PEE DEE...

CITY           SKY/WX    TMP DP  RH WIND       PRES   REMARKS
GEORGETOWN     FAIR      63  59  88 SW8       30.08R
KINGSTREE      FAIR      61  57  88 SW6       30.07R
ORANGEBURG     CLOUDY    63  60  90 SW12      30.08R
BARNWELL       CLOUDY    66  63  88 W12       30.10S
AIKEN          FAIR      63  59  88 SW13G18   30.12R
MANNING        FAIR      61  57  88 CALM      30.08R
COLUMBIA       MOSUNNY   66  59  78 SW12      30.05S
SUMTER         MOSUNNY   65  59  80 SW15      30.02S
FLORENCE       MOSUNNY   66  60  81 W15G24    30.03S
MYRTLE BEACH   SUNNY     64  57  77 SW12      30.07R
N MYRTLE BEACH MOSUNNY   66  60  81 SW12      30.03S

$$

GAZ063-065-086>088-099>101-113>116-118-119-134>141-150-181500-
...SOUTHEAST GEORGIA...

CITY           SKY/WX    TMP DP  RH WIND       PRES   REMARKS
SAVANNAH ARPT  PTSUNNY   62  58  86 W6        30.14R
HUNTER AAF     SUNNY     64  63  97 W10       30.12R
FORT STEWART   SUNNY     64  60  88 SW9       30.13R
STATESBORO     CLOUDY    63  63 100 W10       30.15R
SYLVANIA       CLOUDY   N/A N/A N/A W7        30.14R
CLAXTON        CLOUDY   N/A N/A N/A SW10G16   30.15R

...CSRA...CENTRAL AND FAR SOUTHEAST GEORGIA...

CITY           SKY/WX    TMP DP  RH WIND       PRES   REMARKS
THOMSON        PTSUNNY   66  64  91 W7        30.15R
AUGUSTA-BUSH   MOSUNNY   68  61  78 W9        30.10S
AUGUSTA-DANIEL MOSUNNY   67  59  75 W10       30.11R
SWAINSBORO     CLOUDY    63  63 100 MISG      30.16R
VIDALIA        CLOUDY    63  63 100 W6        30.16R FOG
EASTMAN        CLOUDY    66  66 100 W5        30.19R
HAZLEHURST     CLOUDY    64  64 100 SW7       30.15S FOG
ALMA           FOG       62  62 100 W8        30.16R VSB 1/2
WAYCROSS       PTSUNNY   64  64 100 W6        30.17R
JESUP          FAIR      63  61  94 CALM      30.16R
BAXLEY         CLOUDY    64  64 100 W6        30.16R
BRUNSWICK      SUNNY     64  63  94 SW8       30.15F
SAINT SIMONS   SUNNY     62  59  90 SW8       30.15S

$$

SCZ027-028-034-036>038-045-046-048>050-GAZ119-141-181500-
...LAKE AND SUPPLEMENTAL COASTAL OBSERVATIONS...

STATION/POSITION TIME  TEMP    WIND        PRES    WAVE   SWELL
                       AIR SEA DIR/SP/G            HT/PER HT/PER/DIR
                 (UTC) (F)     (DEG/KT/KT) (MB)    (FT/S) (FT/S/D)
WINYAH BAY       NOT AVBL
LAKE MURRAY      1320   63     240/ 13/ 17 1016.9S
ACE BASIN NERRS  1245   59     240/  2     1019.0
FORT PULASKI     1348      56  260/  6/  9 1020.5R
SAPELO ISLAND    1300   59     220/  6     1020.0

$$

ANZ835-935-AMZ111-154-330-350-352-354-370-450-454-472-181500-
...C-MAN AND BUOY OBSERVATIONS...

STATION/POSITION TIME  TEMP    WIND        PRES    WAVE   SWELL
                       AIR SEA DIR/SP/G            HT/PER HT/PER/DIR
                 (UTC) (F)     (DEG/KT/KT) (MB)    (FT/S) (FT/S/D)
BUOY 41004       1250   69 71  250/ 19/ 23 1018.5    4/ 5   2/140/10
BUOY 41008       1250   61 59  220/ 12/ 14 1020.1    2/10   2/ 80/10
FOLLY BEACH CMAN 1300   58     230/  4/  6 1019.9R
CAPERS NEARSHORE 1308   56 54  250/  8/ 12 1018.9R
FRIPP NEARSHORE  1308   59 56  240/  8/ 12 1019.5R


STATION/POSITION TIME  TEMP    WIND        PRES    WAVE   SWELL
                       AIR SEA DIR/SP/G            HT/PER HT/PER/DIR
                 (UTC) (F)     (DEG/KT/KT) (MB)    (FT/S) (FT/S/D)
5E ST. MARYS GA  1330      61                N/A     2/ 8
FRYING PAN BUOY  1330   69 71  240/ 21/ 25 1017.8R
BUOY 41025       1250   69 71  260/ 23/ 27 1013.9    8/ 6   2/190/10
CAPE LOOKOUT NC  1300   62     240/ 14/ 18 1014.6F
BUOY 41002       1250   71 72  220/ 14/ 17 1019.2    5/ 5   2/ 70/ 8
BUOY 41010       NOT AVBL
ST AUGUSTINE FL  1300   60 62  250/  6/  7 1022.8R


$$




USA.gov is the U.S. government's official web portal to all federal, state and local government web resources and services.